{"data":{"norad_id":82458,"intl_designator":"","name":"UNKNOWN","alt_names":[],"object_type":"UNKNOWN","status":"UNKNOWN","operator":null,"country":null,"launch_date":null,"launch_site_code":null,"launch_vehicle":null,"mission":null,"orbit_class":"UNKNOWN","rcs_meters":null,"size_class":null,"mass_kg":null,"dimensions":null,"purposes":[],"wikipedia_slug":null,"has_3d_model":false,"image_url":null,"decayed_at":null,"tle_current":{"epoch":"2026-09-18T09:21:11.386368Z","epoch_age_seconds":200702,"freshness":"STALE","line1":"1 82458U          26261.38971512  .00001637  00000+0  72814-3 0  9991","line2":"2 82458  66.5113 173.7256 0055736 190.4007 169.5939 14.24647096649856","mean_motion":14.24647096,"eccentricity":0.0055736,"inclination_deg":66.5113,"raan_deg":173.7256,"arg_perigee_deg":190.4007,"mean_anomaly_deg":169.5939,"bstar":0.00072814,"rev_number":64985,"period_min":101.07766365741,"perigee_km":769.61740714195,"apogee_km":849.74143434727,"semimajor_km":7187.8164207446,"source":"CELESTRAK","updated_at":"2026-09-20T09:00:32.435098Z"}}}